Pamplona, Spain

4:42 AM CEST on October 20, 2017 (GMT +0200)
Pamplona

Weather History for LEPP - November, 2012

Change the Weather History Date:

Tuesday, November 13, 2012

  Actual Average Record
Temperature  
Mean Temperature 46 °F -  
Max Temperature 60 °F 49 °F 66 °F (2011)
Min Temperature 33 °F 38 °F 33 °F (2012)
Degree Days  
Heating Degree Days 18    
Moisture  
Dew Point 36 °F    
Average Humidity 67    
Maximum Humidity 93    
Minimum Humidity 39    
Precipitation  
Precipitation 0.00 in - - ()
Sea Level Pressure  
Sea Level Pressure 30.21 in    
Wind  
Wind Speed 2 mph ()    
Max Wind Speed 9 mph    
Max Gust Speed -    
Visibility 6.2 miles    
Events      
Averages and records for this station are not official NWS values.
T = Trace of Precipitation, MM = Missing Value Source: Averaged Metar Reports

Daily Weather History Graph

Daily Weather History Graph

Search for Another Location

Airport or City:

Trip Planner

Search our weather history database for the weather conditions in past years. The results will help you decide how hot, cold, wet, or windy it might be!

Date:

Astronomy

Nov. 13, 2012 Rise Set
Actual Time 7:56 AM CET 5:45 PM CET
Civil Twilight 7:25 AM CET 6:15 PM CET
Nautical Twilight 6:51 AM CET 6:49 PM CET
Astronomical Twilight 6:18 AM CET 7:22 PM CET
Moon 7:16 AM CET (11/13) 5:25 PM CET (11/13)
Length of Visible Light 10h 49m
Length of Day
9h 48m
Waning Crescent, 0% of the Moon is Illuminated
Nov 13
Waning Crescent
Nov 13
New
Nov 20
First Quarter
Nov 28
Full
Dec 6
Last Quarter

Hourly Weather History & Observations

Time (CET) Temp. Windchill Dew Point Humidity Pressure Visibility Wind Dir Wind Speed Gust Speed Precip Events Conditions
12:00 AM 42.8 °F 37.5 °F 33.8 °F 70% 30.30 in 6.2 mi NW 9.2 mph - N/A   Partly Cloudy
5:30 AM 35.6 °F - 30.2 °F 81% 30.24 in - Variable 1.2 mph - N/A   Clear
6:00 AM 35.6 °F - 30.2 °F 81% 30.27 in - Calm Calm - N/A   Clear
6:30 AM 33.8 °F - 30.2 °F 87% 30.27 in - Variable 1.2 mph - N/A   Clear
7:00 AM 35.6 °F - 30.2 °F 81% 30.27 in - Calm Calm - N/A   Clear
7:30 AM 33.8 °F - 30.2 °F 87% 30.27 in - Calm Calm - N/A   Clear
8:00 AM 33.8 °F - 32.0 °F 93% 30.27 in - SE 2.3 mph - N/A   Clear
8:30 AM 35.6 °F - 32.0 °F 87% 30.27 in - Variable 1.2 mph - N/A   Clear
9:00 AM 39.2 °F - 33.8 °F 81% 30.27 in - South 2.3 mph - N/A   Clear
9:30 AM 41.0 °F - 33.8 °F 76% 30.27 in - Calm Calm - N/A   Clear
10:00 AM 42.8 °F - 35.6 °F 76% 30.27 in - Variable 1.2 mph - N/A   Clear
10:30 AM 46.4 °F - 35.6 °F 66% 30.27 in - Calm Calm - N/A   Clear
11:00 AM 48.2 °F - 35.6 °F 62% 30.24 in - Calm Calm - N/A   Clear
11:30 AM 50.0 °F - 35.6 °F 58% 30.24 in - Calm Calm - N/A   Clear
12:00 PM 51.8 °F - 35.6 °F 54% 30.24 in - Calm Calm - N/A   Clear
12:30 PM 53.6 °F - 35.6 °F 51% 30.21 in - Variable 1.2 mph - N/A   Clear
1:00 PM 53.6 °F - 35.6 °F 51% 30.21 in - NW 1.2 mph - N/A   Clear
1:30 PM 55.4 °F - 35.6 °F 47% 30.18 in - Variable 1.2 mph - N/A   Clear
2:00 PM 55.4 °F - 37.4 °F 51% 30.18 in - Variable 1.2 mph - N/A   Clear
2:30 PM 59.0 °F - 37.4 °F 45% 30.18 in - West 1.2 mph - N/A   Clear
3:00 PM 59.0 °F - 37.4 °F 45% 30.15 in - Variable 1.2 mph - N/A   Clear
3:30 PM 59.0 °F - 35.6 °F 42% 30.15 in - Variable 1.2 mph - N/A   Clear
4:00 PM 59.0 °F - 37.4 °F 45% 30.15 in - Calm Calm - N/A   Clear
4:30 PM 60.8 °F - 35.6 °F 39% 30.15 in - Variable 1.2 mph - N/A   Clear
5:00 PM 59.0 °F - 37.4 °F 45% 30.15 in - WSW 2.3 mph - N/A   Clear
5:30 PM 55.4 °F - 35.6 °F 47% 30.15 in - Variable 1.2 mph - N/A   Clear
6:00 PM 51.8 °F - 39.2 °F 62% 30.15 in - Calm Calm - N/A   Clear
6:30 PM 50.0 °F - 39.2 °F 66% 30.18 in - Variable 1.2 mph - N/A   Clear
7:00 PM 48.2 °F - 37.4 °F 66% 30.18 in - Variable 1.2 mph - N/A   Clear
7:30 PM 46.4 °F - 37.4 °F 71% 30.18 in - South 2.3 mph - N/A   Clear
8:30 PM 44.6 °F - 37.4 °F 76% 30.18 in - South 1.2 mph - N/A   Clear
9:00 PM 44.6 °F - 37.4 °F 76% 30.18 in - South 1.2 mph - N/A   Clear
9:30 PM 44.6 °F - 39.2 °F 81% 30.18 in - Calm Calm - N/A   Clear
10:00 PM 44.6 °F - 39.2 °F 81% 30.15 in - Calm Calm - N/A   Clear
10:30 PM 42.8 °F - 39.2 °F 87% 30.15 in - Calm Calm - N/A   Clear
11:00 PM 42.8 °F - 39.2 °F 87% 30.15 in - Calm Calm - N/A   Clear
11:30 PM 42.8 °F - 39.2 °F 87% 30.18 in - Calm Calm - N/A   Clear